Wind_Speed
59 60 68 69 74 72 65 62 68 71 64 49 49 53 58 61 63 65 62 56 54 53 53 56 55 54 53 51 48 46 42 42 44 45 45 48 48 47 46 45 46 48 52 55
53 55 64 68 72 72 77 75 62 63 74 62 62 68 64 64 63 60 61 58 54 53 50 52 53 54 55 54 53 50 51 47 47 47 48 48 49 47 46 47 50 51 53 53
64 54 54 64 62 68 73 80 81 77 72 63 67 78 72 69 66 65 67 66 63 61 55 56 57 59 59 59 57 55 53 49 48 49 51 50 51 49 50 50 50 50 51 53
61 58 61 63 60 60 68 72 73 81 81 78 71 70 73 79 79 78 76 70 68 68 69 64 64 64 60 64 62 60 58 56 53 50 53 57 54 53 51 52 52 53 53 53
34 53 56 70 71 63 60 62 62 67 73 77 81 83 83 74 75 76 76 69 63 65 67 68 63 63 69 67 66 64 59 60 55 57 53 58 55 53 49 53 56 54 55 54
32 36 38 53 50 51 52 73 62 64 66 71 81 91 83 74 77 71 76 71 65 58 59 61 56 59 66 71 64 61 62 56 52 51 50 52 53 54 57 59 58 57 54 53
32 38 29 12 20 38 40 49 61 57 59 68 72 76 82 79 81 76 76 79 75 72 73 68 60 50 50 56 53 55 54 56 47 48 51 50 52 52 55 56 58 57 57 56
29 34 41 28 32 36 32 30 33 41 51 61 71 75 71 79 81 76 82 87 81 74 72 75 70 63 56 45 50 54 53 51 52 53 55 58 53 55 58 57 56 58 50 51
32 30 31 34 34 34 33 35 35 38 34 41 55 71 81 78 80 72 71 71 70 72 75 73 68 66 71 58 52 56 56 57 55 51 49 49 53 56 58 61 57 50 49 49
37 21 30 31 33 30 32 37 36 33 33 34 39 43 49 69 76 72 68 65 69 67 80 74 71 76 69 63 62 65 64 59 53 53 52 53 54 58 62 63 56 51 52 51
34 28 35 30 32 29 32 33 32 30 34 32 37 38 42 46 58 71 65 60 68 69 60 68 72 76 66 65 66 62 60 56 57 61 62 58 57 61 59 60 58 57 54 53
32 30 34 32 30 32 31 29 31 31 34 37 45 40 37 38 47 55 54 62 54 53 60 46 37 41 56 68 64 57 52 54 59 62 60 59 58 58 57 57 54 61 58 62
21 23 26 25 24 26 29 30 29 33 36 40 37 37 36 39 50 57 50 58 50 42 52 51 35 39 43 52 57 64 55 52 57 60 57 54 58 54 54 65 62 53 56 50
26 24 22 24 20 23 27 26 29 30 33 31 27 27 23 30 38 47 45 53 56 43 49 45 44 39 53 41 43 51 51 47 45 39 43 45 44 44 47 54 51 46 47 43
28 31 29 26 22 18 19 20 25 28 27 25 19 18 25 27 32 39 43 41 46 51 45 47 49 54 39 36 38 26 32 37 43 44 38 41 41 44 50 48 42 38 28 24
20 21 21 20 17 15 16 20 22 23 25 17 12 4 13 16 26 34 38 38 42 45 44 45 44 32 26 21 27 36 33 28 32 35 38 41 45 52 37 23 21 22 25 25
23 23 21 19 18 14 11 16 19 21 14 10 9 9 9 14 19 24 30 27 28 30 31 39 29 27 25 26 31 31 26 31 36 36 33 26 21 19 18 19 22 24 25 27
23 24 19 16 17 11 8 10 15 12 11 15 16 16 14 18 19 24 27 26 23 24 40 26 21 23 25 25 28 27 25 22 21 21 21 19 18 23 25 26 26 26 27 28
22 22 18 12 13 11 9 8 6 4 9 12 8 3 7 12 21 23 22 23 22 28 30 34 36 31 30 29 26 25 23 21 19 21 22 23 24 24 25 25 25 26 26 27
19 18 17 10 8 10 8 7 11 11 9 4 4 5 5 11 16 18 25 28 28 35 38 40 27 27 27 28 25 22 21 20 23 22 21 21 19 20 21 21 23 25 25 23
15 13 14 9 7 11 10 10 11 7 9 4 6 6 6 13 13 14 18 16 18 22 25 24 27 27 26 23 21 22 21 19 16 16 17 18 18 19 20 21 22 22 21 16
15 10 9 9 10 11 13 12 10 8 6 5 6 0 1 3 3 3 5 8 8 9 8 14 16 15 15 15 16 14 13 15 18 19 19 19 20 20 20 18 14 12 9 9
13 12 6 5 9 13 15 13 9 8 10 9 9 8 6 7 7 6 7 8 9 7 8 9 10 11 13 15 16 16 14 15 16 17 19 21 20 18 15 10 10 10 8 7
10 12 11 8 6 10 12 13 12 12 13 14 13 13 18 17 17 14 11 10 10 12 15 14 12 14 15 16 17 15 16 17 18 19 18 17 16 13 10 9 9 9 9 10
13 12 10 8 8 10 12 15 16 15 16 17 20 20 19 18 18 18 16 16 16 16 17 16 16 19 19 19 17 14 14 13 13 13 15 15 13 11 11 12 11 12 12 12
16 15 14 12 12 13 14 14 15 18 21 21 21 21 20 19 19 18 17 16 17 18 19 19 18 17 18 15 11 10 10 12 14 16 15 14 14 14 13 14 15 14 14 13
17 16 15 15 12 11 11 13 14 15 16 17 17 18 19 19 19 19 19 19 17 16 16 17 17 15 10 8 9 12 14 15 15 16 14 15 15 15 15 15 15 14 13 13
Wind_Direction
235 234 234 233 232 229 229 237 242 240 234 232 227 235 235 243 246 246 244 244 243 242 241 242 243 243 241 241 241 235 235 243 245 244 248 252 257 260 263 265 268 268 270 273
236 237 237 238 238 236 233 234 235 234 233 229 230 237 238 240 240 241 243 238 235 238 235 236 236 236 236 239 242 241 234 242 243 241 249 256 258 259 262 266 266 268 271 275
242 249 251 240 242 243 242 240 243 237 236 232 232 234 234 237 238 240 240 241 241 239 241 236 239 239 241 242 245 247 252 248 243 245 253 259 259 262 266 268 265 269 273 276
256 259 262 245 241 245 247 246 248 248 245 241 236 240 240 234 236 241 243 242 245 243 243 236 231 234 242 244 244 247 249 253 256 253 254 260 263 263 266 263 265 269 275 279
276 262 266 258 248 256 258 250 248 251 250 244 239 237 237 235 237 241 243 243 240 242 243 237 231 241 243 243 247 248 251 252 255 257 257 258 262 262 264 265 266 271 275 280
277 281 283 263 263 266 266 260 252 258 252 247 242 242 237 236 241 239 234 235 236 235 245 245 246 241 244 246 246 251 253 254 261 260 259 262 261 263 265 266 267 272 277 282
271 274 285 249 245 268 271 270 259 260 261 257 251 253 242 231 236 236 232 239 248 244 241 244 241 241 237 244 244 246 249 249 251 259 260 262 262 264 266 269 272 277 283 283
282 272 277 285 271 273 278 275 268 263 263 263 258 253 250 238 243 244 242 245 246 239 239 243 245 245 239 244 243 242 242 246 258 262 262 261 262 261 266 271 275 279 287 286
280 276 274 279 275 275 274 269 265 266 259 262 263 259 255 249 256 253 240 240 237 240 239 240 244 246 247 241 238 239 239 253 257 262 262 260 261 262 268 272 275 286 284 285
282 282 276 277 278 276 261 263 269 275 275 271 272 271 262 248 241 234 238 244 245 249 241 244 247 246 246 244 243 243 251 258 259 261 257 259 262 268 272 275 278 283 283 279
276 270 272 274 276 265 261 264 273 282 279 275 274 283 264 254 243 242 240 244 243 249 244 243 247 250 240 243 250 253 256 257 259 261 260 262 265 269 274 277 283 280 280 274
297 290 284 284 281 263 264 268 280 280 289 280 280 279 265 261 230 224 233 235 240 243 244 240 241 237 241 243 248 248 250 251 252 252 255 260 266 273 278 276 271 271 275 270
319 311 300 300 294 268 266 274 275 288 291 286 287 284 266 268 224 217 217 224 231 236 232 234 237 237 237 240 245 242 247 253 255 257 261 265 266 273 273 268 263 257 262 272
310 309 313 304 297 284 275 277 284 292 295 293 264 279 273 239 214 214 212 220 232 236 231 231 235 261 244 230 233 236 243 248 247 250 252 254 259 260 265 267 265 271 279 277
294 300 304 298 290 286 279 275 285 291 288 297 311 281 222 201 209 211 216 216 226 234 234 237 256 252 235 216 222 230 247 247 243 242 252 253 254 262 263 265 273 271 255 249
302 303 311 312 302 278 267 274 285 287 308 274 300 256 214 222 201 207 212 221 223 232 241 244 238 238 216 226 243 253 245 250 253 251 257 258 259 259 259 244 242 246 250 259
297 296 303 307 302 282 261 275 285 295 288 291 282 275 239 217 204 187 182 178 204 209 210 212 225 221 236 241 252 244 249 252 251 242 238 232 207 210 220 231 239 251 262 266
291 294 298 297 309 262 249 269 294 297 262 292 279 279 271 221 208 212 201 207 219 237 209 216 229 243 246 258 246 245 225 205 195 185 186 196 214 231 239 250 260 263 267 268
291 292 284 289 299 242 233 275 231 255 271 284 283 55 67 204 208 214 214 214 210 210 212 220 225 239 243 239 218 196 186 187 195 210 220 228 237 246 254 261 266 267 264 263
293 294 277 278 277 227 210 260 230 194 226 227 136 89 57 90 127 194 217 218 214 215 216 227 208 210 203 187 182 190 203 213 229 234 241 252 261 270 272 270 267 269 269 270
296 298 274 259 237 222 208 212 244 214 191 196 128 133 85 88 104 122 112 124 164 181 178 165 174 189 189 198 208 216 217 230 246 261 269 275 277 274 273 269 266 263 264 268
304 309 281 257 227 226 221 217 227 248 261 202 181 42 357 283 347 63 132 156 157 160 158 163 184 201 214 219 231 240 245 255 264 273 274 274 269 269 267 262 261 265 266 262
295 305 298 263 218 217 225 226 220 194 189 255 256 252 266 259 262 260 247 235 234 242 246 229 223 234 252 261 257 256 256 260 265 266 264 260 263 267 266 257 258 255 229 223
271 283 292 283 244 222 220 218 206 201 208 220 226 224 244 245 253 255 250 248 253 256 265 268 259 262 260 253 252 250 248 248 248 245 249 255 254 248 244 242 233 224 224 231
245 239 247 240 234 225 223 224 215 213 220 223 231 236 241 243 246 247 247 242 244 249 253 249 243 236 237 238 234 231 231 230 232 230 227 221 217 220 220 216 222 223 235 241
234 226 221 218 206 196 193 199 210 220 225 228 229 229 230 231 233 234 229 228 237 236 232 231 229 223 221 213 209 216 219 220 213 210 206 202 204 204 211 218 227 232 237 245
229 228 218 218 219 217 215 211 203 201 205 210 213 218 223 223 222 219 219 221 221 223 221 220 212 203 198 202 213 212 205 204 206 204 202 204 209 211 218 231 237 239 243 260
Height
5507 5512 5511 5518 5526 5529 5531 5535 5534 5551 5555 5579 5586 5589 5594 5595 5600 5607 5613 5617 5620 5624 5630 5637 5646 5651 5654 5657 5661 5664 5666 5668 5670 5672 5672 5672 5672 5674 5675 5675 5676 5675 5673 5671
5496 5498 5500 5503 5510 5517 5522 5523 5521 5530 5538 5571 5573 5567 5577 5579 5583 5589 5595 5603 5606 5611 5615 5621 5628 5633 5637 5642 5645 5649 5653 5656 5658 5659 5660 5660 5661 5662 5664 5665 5664 5663 5660 5659
5484 5488 5485 5486 5509 5505 5505 5509 5512 5514 5532 5550 5550 5549 5561 5562 5567 5572 5578 5584 5590 5597 5603 5608 5615 5618 5623 5626 5630 5635 5638 5643 5646 5649 5649 5648 5648 5650 5652 5653 5651 5650 5649 5647
5477 5475 5467 5485 5490 5488 5491 5496 5500 5502 5509 5523 5532 5539 5541 5546 5550 5553 5556 5568 5572 5578 5584 5593 5597 5602 5606 5610 5614 5619 5624 5628 5631 5635 5635 5635 5636 5638 5640 5640 5640 5638 5636 5635
5465 5466 5463 5469 5483 5483 5480 5479 5483 5486 5495 5505 5511 5509 5510 5529 5533 5537 5543 5548 5555 5559 5565 5572 5580 5587 5590 5596 5602 5606 5612 5615 5619 5621 5622 5622 5623 5624 5626 5626 5625 5625 5623 5622
5460 5457 5451 5467 5473 5469 5457 5450 5479 5473 5472 5478 5485 5476 5499 5515 5515 5522 5528 5531 5536 5542 5549 5555 5565 5570 5574 5581 5587 5595 5601 5604 5607 5607 5608 5608 5608 5610 5610 5611 5611 5611 5611 5608
5451 5447 5444 5454 5454 5446 5445 5451 5453 5452 5454 5458 5461 5465 5483 5495 5499 5505 5511 5514 5518 5525 5533 5542 5547 5555 5561 5567 5575 5582 5585 5590 5592 5593 5593 5593 5594 5595 5596 5598 5598 5598 5596 5595
5442 5439 5434 5443 5439 5437 5438 5437 5437 5439 5441 5443 5447 5453 5460 5475 5474 5485 5491 5496 5502 5508 5515 5523 5530 5537 5547 5555 5561 5565 5571 5574 5577 5578 5578 5579 5580 5581 5582 5583 5584 5584 5582 5580
5434 5432 5432 5430 5429 5428 5428 5426 5426 5425 5431 5426 5427 5434 5444 5454 5454 5466 5472 5476 5484 5490 5497 5504 5513 5521 5530 5542 5546 5551 5553 5556 5560 5561 5564 5566 5566 5567 5568 5569 5569 5569 5566 5564
5422 5429 5422 5421 5419 5419 5418 5414 5415 5418 5419 5417 5414 5415 5416 5424 5435 5443 5454 5461 5469 5476 5482 5490 5497 5505 5514 5523 5531 5536 5538 5541 5543 5546 5550 5551 5552 5552 5553 5553 5554 5553 5552 5550
5411 5415 5410 5413 5410 5410 5407 5407 5408 5408 5407 5405 5401 5399 5398 5402 5408 5418 5433 5443 5454 5459 5468 5479 5486 5490 5500 5508 5515 5520 5522 5524 5526 5530 5533 5535 5537 5538 5538 5538 5538 5539 5538 5535
5405 5406 5402 5403 5402 5400 5399 5401 5400 5398 5396 5393 5388 5386 5384 5384 5388 5398 5415 5429 5439 5446 5455 5466 5472 5475 5484 5493 5498 5501 5505 5508 5512 5515 5518 5521 5523 5524 5524 5524 5522 5524 5524 5524
5400 5398 5394 5394 5395 5393 5393 5393 5392 5390 5387 5382 5378 5372 5370 5370 5374 5384 5399 5415 5428 5435 5443 5454 5460 5466 5473 5479 5483 5487 5491 5496 5500 5502 5506 5508 5511 5512 5513 5506 5509 5506 5510 5510
5395 5393 5392 5388 5389 5387 5385 5385 5384 5382 5377 5373 5367 5364 5362 5363 5368 5377 5391 5405 5416 5426 5434 5443 5448 5453 5460 5465 5469 5473 5479 5483 5487 5490 5493 5495 5497 5498 5498 5499 5499 5499 5498 5498
5390 5386 5384 5383 5382 5380 5379 5378 5377 5373 5370 5365 5361 5359 5360 5362 5369 5377 5387 5397 5409 5419 5427 5433 5440 5446 5448 5452 5457 5463 5468 5472 5474 5477 5479 5481 5482 5483 5485 5486 5487 5488 5488 5489
5386 5383 5379 5376 5374 5373 5373 5372 5371 5368 5365 5363 5361 5359 5360 5363 5367 5374 5383 5393 5403 5411 5418 5425 5431 5434 5438 5443 5450 5454 5456 5458 5460 5462 5465 5467 5469 5471 5474 5475 5478 5480 5481 5480
5380 5377 5374 5371 5368 5367 5367 5367 5366 5364 5363 5362 5361 5360 5360 5362 5366 5372 5380 5388 5397 5403 5410 5417 5421 5426 5430 5435 5439 5442 5444 5447 5449 5452 5455 5458 5461 5464 5466 5469 5471 5472 5472 5472
5374 5371 5369 5367 5364 5363 5364 5364 5363 5362 5362 5361 5361 5360 5358 5360 5363 5370 5378 5384 5390 5391 5397 5405 5411 5418 5421 5426 5430 5433 5436 5439 5443 5446 5449 5452 5455 5458 5460 5462 5463 5463 5464 5464
5368 5366 5364 5363 5361 5360 5361 5363 5363 5363 5362 5362 5362 5360 5357 5355 5360 5365 5371 5377 5384 5389 5395 5401 5406 5411 5416 5420 5422 5427 5430 5434 5438 5442 5445 5447 5449 5451 5452 5452 5454 5455 5455 5456
5363 5361 5360 5359 5357 5357 5359 5361 5363 5362 5362 5364 5364 5363 5359 5359 5360 5364 5369 5375 5381 5386 5391 5397 5399 5405 5410 5415 5419 5423 5427 5430 5434 5437 5439 5440 5440 5443 5444 5444 5445 5447 5447 5445
5358 5356 5355 5355 5355 5356 5357 5360 5362 5363 5362 5365 5366 5365 5363 5364 5366 5368 5371 5375 5379 5383 5388 5390 5394 5402 5406 5411 5415 5418 5421 5424 5427 5429 5431 5433 5433 5435 5436 5436 5437 5437 5438 5436
5353 5352 5352 5352 5352 5354 5355 5357 5359 5361 5361 5363 5364 5364 5364 5365 5367 5370 5374 5378 5382 5385 5385 5387 5394 5400 5405 5407 5411 5414 5415 5418 5421 5422 5424 5426 5427 5428 5428 5429 5428 5429 5428 5429
5350 5349 5349 5350 5350 5351 5352 5355 5356 5359 5360 5360 5362 5364 5365 5367 5369 5371 5373 5376 5379 5383 5387 5390 5393 5397 5399 5403 5407 5409 5409 5411 5412 5415 5417 5419 5420 5421 5421 5420 5422 5424 5425 5427
5347 5346 5346 5347 5348 5349 5350 5352 5354 5356 5358 5360 5361 5362 5365 5367 5369 5371 5373 5376 5380 5382 5386 5389 5390 5393 5396 5400 5402 5401 5403 5405 5407 5409 5411 5413 5414 5415 5415 5417 5419 5421 5423 5426
5344 5344 5345 5345 5345 5346 5347 5349 5350 5352 5354 5356 5357 5359 5362 5363 5365 5367 5370 5373 5377 5380 5382 5384 5386 5389 5390 5394 5395 5395 5397 5399 5401 5403 5406 5408 5409 5410 5412 5415 5417 5419 5422 5423
5338 5340 5341 5342 5343 5344 5345 5345 5347 5349 5351 5353 5355 5357 5359 5361 5363 5364 5367 5370 5373 5375 5377 5379 5382 5384 5388 5388 5388 5391 5393 5396 5399 5401 5402 5403 5404 5407 5409 5412 5415 5416 5418 5420
5331 5334 5336 5337 5339 5340 5342 5344 5345 5347 5348 5350 5351 5353 5355 5357 5358 5361 5364 5366 5369 5371 5373 5376 5378 5380 5381 5382 5384 5387 5390 5392 5394 5396 5397 5400 5403 5404 5407 5410 5411 5412 5414 5414